When you browse on this site, cookies collect data to enhance your experience and personalize the content and advertising you see.
Visit our Privacy Policy to learn more. By continuing to use the site, you agree to this use of cookies and data.
  • In Hungary
  • List of Countries
  • For 7 days
  • Water Temperature
  • Weather Map
  • News
  • Weather Widgets
  • user-avatar
    Login

    Hourly Weather Zelenyy Dol

    Today, 22 January, Wednesday

    Time Temperature Precipitation Wind Pressure Humidity
    00:00 -4°C° 0.8 mm 8 mps 744 mmHg 93%
    01:00 -4°C° 0.2 mm 8 mps 743 mmHg 94%
    02:00 -2°C° 0.2 mm 8 mps 743 mmHg 95%
    03:00 -2°C° 0.2 mm 8 mps 742 mmHg 96%
    04:00 -1°C° 0.2 mm 8 mps 741 mmHg 97%
    05:00 -1°C° 0.2 mm 8 mps 740 mmHg 98%
    06:00 -1°C° 0.2 mm 8 mps 740 mmHg 98%
    07:00 -1°C° 0 mm 8 mps 740 mmHg 95%
    08:00 -1°C° 0 mm 8 mps 740 mmHg 91%
    09:00 -1°C° 0 mm 7 mps 740 mmHg 88%
    10:00 -2°C° 0 mm 7 mps 741 mmHg 89%
    11:00 -2°C° 0 mm 7 mps 741 mmHg 91%
    12:00 -2°C° 0 mm 7 mps 741 mmHg 93%
    13:00 -2°C° 0 mm 7 mps 741 mmHg 90%
    14:00 -3°C° 0 mm 6 mps 741 mmHg 86%
    15:00 -3°C° 0 mm 6 mps 741 mmHg 83%
    16:00 -3°C° 0 mm 6 mps 741 mmHg 84%
    17:00 -2°C° 0 mm 5 mps 741 mmHg 85%
    18:00 -3°C° 0 mm 4 mps 741 mmHg 86%
    19:00 -3°C° 0 mm 4 mps 741 mmHg 87%
    20:00 -2°C° 0 mm 3 mps 741 mmHg 88%
    21:00 -2°C° 0 mm 3 mps 741 mmHg 89%
    22:00 -4°C° 0 mm 3 mps 740 mmHg 90%
    23:00 -4°C° 0 mm 3 mps 740 mmHg 92%

    Tomorrow, 23 January, Thursday

    Time Temperature Precipitation Wind Pressure Humidity
    00:00 -3°C° 0 mm 2 mps 739 mmHg 93%
    01:00 -3°C° 0 mm 2 mps 739 mmHg 93%
    02:00 -3°C° 0 mm 2 mps 739 mmHg 93%
    03:00 -3°C° 0 mm 2 mps 739 mmHg 93%
    04:00 -3°C° 0 mm 2 mps 739 mmHg 93%
    05:00 -3°C° 0 mm 2 mps 738 mmHg 93%
    06:00 -3°C° 0 mm 2 mps 738 mmHg 93%
    07:00 -4°C° 0.2 mm 3 mps 738 mmHg 94%
    08:00 -4°C° 0.2 mm 3 mps 739 mmHg 94%
    09:00 -4°C° 0.2 mm 4 mps 739 mmHg 94%
    10:00 -5°C° 0 mm 5 mps 740 mmHg 92%
    11:00 -5°C° 0 mm 6 mps 740 mmHg 89%
    12:00 -5°C° 0 mm 6 mps 740 mmHg 86%
    13:00 -6°C° 0 mm 6 mps 741 mmHg 86%
    14:00 -6°C° 0 mm 6 mps 742 mmHg 86%
    15:00 -8°C° 0 mm 6 mps 742 mmHg 86%
    16:00 -7°C° 0 mm 5 mps 743 mmHg 87%
    17:00 -8°C° 0 mm 5 mps 744 mmHg 87%
    18:00 -8°C° 0 mm 4 mps 744 mmHg 87%
    19:00 -8°C° 0 mm 4 mps 745 mmHg 87%
    20:00 -8°C° 0 mm 5 mps 746 mmHg 87%
    21:00 -8°C° 0 mm 5 mps 746 mmHg 87%
    22:00 -10°C° 0 mm 5 mps 747 mmHg 86%
    23:00 -10°C° 0 mm 5 mps 747 mmHg 86%

    Day after tomorrow, 24 January, Friday

    Time Temperature Precipitation Wind Pressure Humidity
    00:00 -11°C° 0 mm 5 mps 748 mmHg 85%
    01:00 -12°C° 0 mm 5 mps 748 mmHg 86%
    02:00 -12°C° 0 mm 5 mps 749 mmHg 87%
    03:00 -12°C° 0 mm 4 mps 750 mmHg 88%
    04:00 -12°C° 0 mm 4 mps 750 mmHg 89%
    05:00 -12°C° 0 mm 4 mps 750 mmHg 89%
    06:00 -14°C° 0 mm 4 mps 751 mmHg 89%
    07:00 -14°C° 0 mm 4 mps 751 mmHg 89%
    08:00 -14°C° 0 mm 4 mps 752 mmHg 89%
    09:00 -14°C° 0 mm 4 mps 753 mmHg 89%
    10:00 -12°C° 0 mm 4 mps 753 mmHg 88%
    11:00 -12°C° 0 mm 4 mps 754 mmHg 87%
    12:00 -11°C° 0 mm 4 mps 754 mmHg 86%
    13:00 -11°C° 0 mm 4 mps 754 mmHg 86%
    14:00 -11°C° 0 mm 4 mps 754 mmHg 87%
    15:00 -11°C° 0 mm 4 mps 754 mmHg 87%
    16:00 -12°C° 0 mm 4 mps 754 mmHg 86%
    17:00 -12°C° 0 mm 4 mps 754 mmHg 85%
    18:00 -12°C° 0 mm 4 mps 754 mmHg 84%
    19:00 -12°C° 0 mm 4 mps 754 mmHg 83%
    20:00 -13°C° 0 mm 5 mps 754 mmHg 83%
    21:00 -14°C° 0 mm 5 mps 754 mmHg 83%
    22:00 -13°C° 0 mm 5 mps 753 mmHg 84%
    23:00 -12°C° 0 mm 6 mps 752 mmHg 85%

    25 January, Saturday

    Time Temperature Precipitation Wind Pressure Humidity
    00:00 -12°C° 0 mm 7 mps 751 mmHg 86%
    01:00 -11°C° 0.3 mm 7 mps 750 mmHg 88%
    02:00 -10°C° 0.3 mm 8 mps 750 mmHg 90%
    03:00 -8°C° 0.3 mm 8 mps 749 mmHg 92%
    04:00 -7°C° 0.4 mm 8 mps 748 mmHg 92%
    05:00 -7°C° 0.4 mm 8 mps 747 mmHg 91%
    06:00 -6°C° 0.4 mm 8 mps 747 mmHg 91%
    07:00 -4°C° 0.1 mm 7 mps 747 mmHg 92%
    08:00 -3°C° 0.1 mm 7 mps 747 mmHg 93%
    09:00 -3°C° 0.1 mm 6 mps 747 mmHg 93%
    10:00 -1°C° 0.1 mm 5 mps 747 mmHg 95%
    11:00 -1°C° 0.1 mm 5 mps 747 mmHg 97%
    12:00 -1°C° 0.1 mm 5 mps 747 mmHg 99%
    13:00 -1°C° 0.1 mm 5 mps 746 mmHg 98%
    14:00 -1°C° 0.1 mm 5 mps 746 mmHg 98%
    15:00 -1°C° 0.1 mm 5 mps 746 mmHg 98%
    16:00 -1°C° 0.2 mm 5 mps 745 mmHg 98%
    17:00 -2°C° 0.2 mm 6 mps 745 mmHg 97%
    18:00 -2°C° 0.2 mm 7 mps 744 mmHg 97%
    19:00 -2°C° 0.1 mm 7 mps 744 mmHg 96%
    20:00 -2°C° 0.1 mm 7 mps 744 mmHg 95%
    21:00 -2°C° 0.1 mm 8 mps 743 mmHg 94%
    22:00 -2°C° 0 mm 8 mps 743 mmHg 95%
    23:00 -2°C° 0 mm 8 mps 742 mmHg 95%

    26 January, Sunday

    Time Temperature Precipitation Wind Pressure Humidity
    00:00 -2°C° 0 mm 8 mps 742 mmHg 96%
    01:00 -2°C° 0.3 mm 8 mps 742 mmHg 95%
    02:00 -3°C° 0.3 mm 7 mps 741 mmHg 95%
    03:00 -3°C° 0.3 mm 7 mps 741 mmHg 94%
    04:00 -3°C° 0.1 mm 7 mps 741 mmHg 91%
    05:00 -4°C° 0.1 mm 8 mps 741 mmHg 87%
    06:00 -4°C° 0.1 mm 8 mps 741 mmHg 83%
    07:00 -5°C° 0 mm 9 mps 742 mmHg 82%
    08:00 -5°C° 0 mm 9 mps 742 mmHg 81%
    09:00 -6°C° 0 mm 9 mps 743 mmHg 80%
    10:00 -6°C° 0 mm 9 mps 744 mmHg 80%
    11:00 -6°C° 0 mm 9 mps 745 mmHg 80%
    12:00 -6°C° 0 mm 9 mps 746 mmHg 80%
    13:00 -6°C° 0 mm 9 mps 747 mmHg 79%
    14:00 -6°C° 0 mm 9 mps 747 mmHg 79%
    15:00 -6°C° 0 mm 8 mps 748 mmHg 79%
    16:00 -7°C° 0 mm 8 mps 749 mmHg 80%
    17:00 -7°C° 0 mm 8 mps 750 mmHg 81%
    18:00 -7°C° 0 mm 8 mps 750 mmHg 81%
    19:00 -8°C° 0 mm 8 mps 751 mmHg 80%
    20:00 -8°C° 0 mm 8 mps 752 mmHg 79%
    21:00 -8°C° 0 mm 8 mps 752 mmHg 78%
    22:00 -9°C° 0 mm 7 mps 753 mmHg 79%
    23:00 -11°C° 0 mm 7 mps 754 mmHg 80%

    27 January, Monday

    Time Temperature Precipitation Wind Pressure Humidity
    00:00 -12°C° 0 mm 7 mps 755 mmHg 81%
    01:00 -12°C° 0 mm 7 mps 756 mmHg 82%
    02:00 -12°C° 0 mm 7 mps 757 mmHg 83%
    03:00 -13°C° 0 mm 7 mps 758 mmHg 84%
    04:00 -12°C° 0 mm 6 mps 758 mmHg 83%
    05:00 -13°C° 0 mm 5 mps 759 mmHg 83%
    06:00 -13°C° 0 mm 5 mps 760 mmHg 83%
    07:00 -12°C° 0 mm 4 mps 760 mmHg 84%
    08:00 -12°C° 0 mm 4 mps 761 mmHg 84%
    09:00 -12°C° 0 mm 3 mps 762 mmHg 84%
    10:00 -10°C° 0 mm 3 mps 762 mmHg 83%
    11:00 -9°C° 0 mm 3 mps 763 mmHg 82%
    12:00 -9°C° 0 mm 3 mps 763 mmHg 81%
    13:00 -9°C° 0 mm 3 mps 763 mmHg 82%
    14:00 -9°C° 0 mm 3 mps 763 mmHg 83%
    15:00 -7°C° 0 mm 2 mps 763 mmHg 84%
    16:00 -9°C° 0 mm 3 mps 763 mmHg 84%
    17:00 -9°C° 0 mm 3 mps 763 mmHg 83%
    18:00 -10°C° 0 mm 3 mps 764 mmHg 83%
    19:00 -9°C° 0 mm 3 mps 763 mmHg 83%
    20:00 -10°C° 0 mm 4 mps 763 mmHg 82%
    21:00 -10°C° 0 mm 4 mps 763 mmHg 82%
    22:00 -10°C° 0 mm 5 mps 763 mmHg 81%
    23:00 -10°C° 0 mm 5 mps 762 mmHg 80%
    Show more